Estación de San Felipe

Ultimos registro cada 15 minutos 49
Estación Fecha / Hora Temperatura Humedad Lluvia Velocidad Dirección Radiación Presion
49 San Felipe 07-05-2026 12:00 17,5 61,2 0 0 246 516,9 945,3
48 San Felipe 07-05-2026 11:45 17 65 0 0 279 505,6 945,6
47 San Felipe 07-05-2026 11:30 17,1 64,7 0 0 312 490,6 945,9
46 San Felipe 07-05-2026 11:15 16,6 66,8 0 0 53 491,9 946,1
45 San Felipe 07-05-2026 11:00 15,5 73,9 0 0 29 500,6 946,2
44 San Felipe 07-05-2026 10:45 14,1 91,7 0 0 330 375,6 946,4
43 San Felipe 07-05-2026 10:30 11,6 96 0 0 1 213,1 946,3
42 San Felipe 07-05-2026 10:15 10,8 96,8 0 0 1 103,1 946,1
41 San Felipe 07-05-2026 10:00 10,3 97,1 0 0 1 118,1 946,3
40 San Felipe 07-05-2026 09:45 9,9 97,3 0 0 6 126,9 946,1
39 San Felipe 07-05-2026 09:30 9,9 97,8 0 0 6 96,9 946,2
38 San Felipe 07-05-2026 09:15 9,3 97,5 0 0 6 78,1 946,2
37 San Felipe 07-05-2026 09:00 9 97,9 0 0 355 71,9 946
36 San Felipe 07-05-2026 08:45 8,7 97,9 0 0 340 44,4 945,9
35 San Felipe 07-05-2026 08:30 8,2 97,9 0 0 340 44,4 945,9
34 San Felipe 07-05-2026 08:15 7,8 97,8 0 0 340 36,9 945,7
33 San Felipe 07-05-2026 08:00 7,6 97,6 0 0 340 18,1 945,6
32 San Felipe 07-05-2026 07:45 7,5 97,6 0 0 340 3,1 945,4
31 San Felipe 07-05-2026 07:30 7,4 97,5 0 0 340 1,9 945,4
30 San Felipe 07-05-2026 07:15 7,5 97,5 0 0 340 0,6 945,3
29 San Felipe 07-05-2026 07:00 7,5 97,4 0 0 340 0,6 945
28 San Felipe 07-05-2026 06:45 7,3 97,3 0 0 340 0,6 945
27 San Felipe 07-05-2026 06:30 7,1 97,3 0 0 340 0,6 944,9
26 San Felipe 07-05-2026 06:15 7 97,1 0 0 340 0,6 944,8
25 San Felipe 07-05-2026 06:00 6,8 97 0 0 340 0,6 944,5
24 San Felipe 07-05-2026 05:45 7,5 96,9 0 0 340 0,6 944,3
23 San Felipe 07-05-2026 05:30 7 97 0 0 340 0,6 944,1
22 San Felipe 07-05-2026 05:15 5 96,4 0 0 340 0,6 944
21 San Felipe 07-05-2026 05:00 5,4 95,5 0 0 340 0,6 943,8
20 San Felipe 07-05-2026 04:45 7,3 95,8 0 0 340 0,6 943,9
19 San Felipe 07-05-2026 04:30 6,9 95,6 0 0 340 0,6 943,8
18 San Felipe 07-05-2026 04:15 6,7 94,8 0 0 340 0,6 943,9
17 San Felipe 07-05-2026 04:00 7,3 94,5 0 0 340 0,6 943,8
16 San Felipe 07-05-2026 03:45 8,4 94 0 0 340 0,6 943,8
15 San Felipe 07-05-2026 03:30 7,7 93,4 0 0 340 0,6 943,8
14 San Felipe 07-05-2026 03:15 8 92,6 0 0 340 0,6 943,7
13 San Felipe 07-05-2026 03:00 8,7 91,5 0 0 340 0,6 943,7
12 San Felipe 07-05-2026 02:45 9,8 91 0 0 340 0,6 943,7
11 San Felipe 07-05-2026 02:30 10,6 91,2 0 0 340 0,6 943,6
10 San Felipe 07-05-2026 02:15 10,6 91,4 0 0 340 0,6 943,5
9 San Felipe 07-05-2026 02:00 10,5 92 0 0 340 0,6 943,3
8 San Felipe 07-05-2026 01:45 10,2 91,9 0 0 340 0,6 943,1
7 San Felipe 07-05-2026 01:30 10,4 91,7 0 0 340 0,6 943,1
6 San Felipe 07-05-2026 01:15 10,6 91,4 0 0 340 0,6 943
5 San Felipe 07-05-2026 01:00 10,8 90,7 0 0 299 0,6 943,1
4 San Felipe 07-05-2026 00:45 11,1 90,1 0 0 220 0,6 943
3 San Felipe 07-05-2026 00:30 11,5 89,5 0 0 181 0,6 943
2 San Felipe 07-05-2026 00:15 12 89 0 0 197 0,6 942,9
1 San Felipe 07-05-2026 00:00 12 90,4 0 0 254 0,6 942,9